IGETXO42 Weather Reports


time (UTC)temp
C
wind
direction
speed
KPH
gust
KPH
rain 1hr
cm
rain 24hr
cm
rain mn
cm
humidity
%
barometer
mb
20260504060105 12 0 0.0 1.6 0.25 2.79 0.94 95 1013.4
20260504044554 11 230 1.6 8.0 0.10 2.31 0.46 94 1013.0
20260504043051 12 15 3.2 8.0 0.05 2.21 0.36 94 1013.1
20260504041553 12 8 3.2 6.4 0.03 2.18 0.36 95 1012.9
20260504040054 12 278 0.0 4.8 0.03 2.18 0.36 95 1012.9
20260504034550 12 0 0.0 3.2 0.03 2.18 0.36 95 1013.0
20260504033104 12 293 0.0 6.4 0.00 2.16 0.30 95 1013.2
20260504031601 12 0 0.0 6.4 0.00 2.16 0.30 95 1013.2
20260504030055 12 0 1.6 3.2 0.00 2.16 0.30 95 1013.1
20260504024603 12 193 1.6 4.8 0.00 2.16 0.30 95 1013.1
20260504023056 12 0 0.0 3.2 0.00 2.16 0.30 95 1013.2
20260504021557 12 0 0.0 1.6 0.00 2.16 0.30 95 1013.1
20260504020052 12 233 0.0 1.6 0.00 2.16 0.30 95 1013.2
20260504014552 12 216 1.6 4.8 0.00 2.16 0.30 95 1013.3
20260504013104 12 351 0.0 3.2 0.00 2.16 0.30 95 1013.3
20260504011553 12 346 0.0 3.2 0.00 2.16 0.30 95 1013.2
20260504010057 12 1 1.6 8.0 0.00 2.16 0.30 95 1013.3
20260504004603 12 0 0.0 4.8 0.00 2.16 0.30 95 1013.2
20260504003054 12 32 1.6 6.4 0.00 2.16 0.30 95 1013.3
20260504001554 12 193 1.6 6.4 0.00 2.16 0.30 95 1013.4
20260504000055 12 352 1.6 8.0 0.00 2.16 0.30 95 1013.6
20260503234552 12 306 1.6 4.8 0.00 2.16 0.30 95 1013.6
20260503233055 12 209 1.6 4.8 0.08 2.16 0.30 95 1013.7
20260503231557 12 307 3.2 9.7 0.18 2.16 0.30 95 1013.7
20260503230054 13 176 1.6 6.4 0.30 2.16 0.30 95 1013.8
20260503224554 13 359 3.2 16.1 0.36 2.16 0.30 95 1013.8
20260503223057 13 271 1.6 6.4 0.33 2.06 0.20 95 1013.8
20260503221555 13 354 3.2 11.3 0.25 1.96 0.10 95 1013.5
20260503214557 13 338 6.4 12.9 0.36 1.78 1.78 94 1013.4
20260503213054 13 300 3.2 16.1 0.28 1.73 1.73 95 1013.4
20260503211603 13 295 3.2 8.0 0.28 1.70 1.70 95 1013.2
20260503210054 13 49 1.6 8.0 0.23 1.68 1.68 94 1013.1
20260503204551 14 6 1.6 4.8 0.00 1.42 1.42 95 1012.9
20260503203053 14 0 0.0 0.0 0.00 1.42 1.42 95 1012.2
20260503201556 14 0 0.0 0.0 0.00 1.42 1.42 95 1012.0
20260503200053 14 0 0.0 0.0 0.00 1.42 1.42 95 1012.0
20260503194557 14 0 0.0 0.0 0.00 1.42 1.42 95 1011.7
20260503193056 14 0 0.0 0.0 0.13 1.42 1.42 95 1011.7
20260503191554 14 0 0.0 0.0 0.25 1.42 1.42 94 1012.0
20260503190055 14 0 0.0 1.6 0.28 1.42 1.42 94 1011.7
20260503184606 15 0 0.0 0.0 0.25 1.40 1.40 95 1011.7
20260503183057 15 0 0.0 4.8 0.13 1.30 1.30 94 1011.8
20260503181552 15 356 0.0 3.2 0.00 1.17 1.17 94 1011.9
20260503180054 15 0 0.0 4.8 0.00 1.14 1.14 94 1011.7
20260503174607 15 176 1.6 6.4 0.20 1.22 1.14 93 1011.5
20260503173101 15 0 0.0 6.4 0.41 1.22 1.14 94 1011.1
20260503171552 15 0 0.0 9.7 0.46 1.22 1.14 94 1011.2
20260503150103 18 62 1.6 4.8 0.00 0.74 0.64 92 1010.3
20260503100107 16 312 3.2 8.0 0.00 1.40 0.00 93 1012.9
20260503081554 14 195 0.0 3.2 0.00 1.40 0.00 94 1013.0